Time,TemperatureF,DewpointF,PressureIn,WindDirection,WindDirectionDegrees,WindSpeedMPH,WindSpeedGustMPH,Humidity,HourlyPrecipIn,Conditions,Clouds,dailyrainin,SoftwareType,DateUTC
2013-01-25 00:04:00,3.8,-5.0,30.17,SE,128,1.0,-999.0,66,-99.99,,,0.00,weatherlink.com 1.10,2013-01-25 06:04:00,
2013-01-25 00:19:00,4.0,-5.0,30.15,ENE,74,9.0,-999.0,66,-99.99,,,0.00,weatherlink.com 1.10,2013-01-25 06:19:00,
2013-01-25 00:34:00,4.1,-5.0,30.14,East,94,2.0,-999.0,67,-99.99,,,0.00,weatherlink.com 1.10,2013-01-25 06:34:00,
2013-01-25 00:49:00,4.2,-4.0,30.14,SE,126,2.0,-999.0,69,-99.99,,,0.00,weatherlink.com 1.10,2013-01-25 06:49:00,
2013-01-25 01:04:00,4.1,-3.0,30.13,ESE,108,1.0,-999.0,71,-99.99,,,0.00,weatherlink.com 1.10,2013-01-25 07:04:00,
2013-01-25 01:20:00,4.2,-3.0,30.12,SE,142,2.0,-999.0,72,-99.99,,,0.00,weatherlink.com 1.10,2013-01-25 07:20:00,
2013-01-25 01:35:00,4.2,-3.0,30.11,East,90,4.0,-999.0,72,-99.99,,,0.00,weatherlink.com 1.10,2013-01-25 07:35:00,
2013-01-25 01:50:00,4.3,-3.0,30.09,ESE,119,2.0,-999.0,73,-99.99,,,0.00,weatherlink.com 1.10,2013-01-25 07:50:00,
2013-01-25 02:05:00,4.4,-2.0,30.08,SSE,155,3.0,-999.0,74,-99.99,,,0.00,weatherlink.com 1.10,2013-01-25 08:05:00,
2013-01-25 02:20:00,4.4,-2.0,30.07,SE,136,2.0,-999.0,75,-99.99,,,0.00,weatherlink.com 1.10,2013-01-25 08:20:00,
2013-01-25 02:35:00,4.5,-2.0,30.05,SE,138,0.0,-999.0,75,-99.99,,,0.00,weatherlink.com 1.10,2013-01-25 08:35:00,
2013-01-25 02:50:00,4.6,-2.0,30.04,ENE,76,3.0,-999.0,75,-99.99,,,0.00,weatherlink.com 1.10,2013-01-25 08:50:00,
2013-01-25 03:05:00,4.7,-2.0,30.04,ESE,102,2.0,-999.0,75,-99.99,,,0.00,weatherlink.com 1.10,2013-01-25 09:05:00,
2013-01-25 03:20:00,4.9,-1.0,30.03,SSW,205,0.0,-999.0,75,-99.99,,,0.00,weatherlink.com 1.10,2013-01-25 09:20:00,
2013-01-25 03:35:00,5.2,-1.0,30.02,ESE,118,2.0,-999.0,75,-99.99,,,0.00,weatherlink.com 1.10,2013-01-25 09:35:00,
2013-01-25 03:50:00,5.4,-1.0,30.01,ESE,119,5.0,-999.0,76,-99.99,,,0.00,weatherlink.com 1.10,2013-01-25 09:50:00,
2013-01-25 04:09:00,5.4,-1.0,30.00,East,90,0.0,-999.0,76,-99.99,,,0.00,weatherlink.com 1.10,2013-01-25 10:09:00,
2013-01-25 04:21:00,5.4,-1.0,29.99,East,83,0.0,-999.0,76,-99.99,,,0.00,weatherlink.com 1.10,2013-01-25 10:21:00,
2013-01-25 04:35:00,5.5,-1.0,29.98,ESE,108,1.0,-999.0,76,-99.99,,,0.00,weatherlink.com 1.10,2013-01-25 10:35:00,
2013-01-25 04:51:00,5.5,-1.0,29.96,ESE,110,1.0,-999.0,76,-99.99,,,0.00,weatherlink.com 1.10,2013-01-25 10:51:00,
2013-01-25 05:05:00,5.5,0.0,29.95,ESE,110,0.0,-999.0,77,-99.99,,,0.00,weatherlink.com 1.10,2013-01-25 11:05:00,
2013-01-25 05:21:00,5.6,0.0,29.94,ESE,110,1.0,-999.0,77,-99.99,,,0.00,weatherlink.com 1.10,2013-01-25 11:21:00,
2013-01-25 05:36:00,5.7,0.0,29.94,East,85,0.0,-999.0,77,-99.99,,,0.00,weatherlink.com 1.10,2013-01-25 11:36:00,
2013-01-25 05:51:00,5.8,0.0,29.93,East,85,2.0,-999.0,77,-99.99,,,0.00,weatherlink.com 1.10,2013-01-25 11:51:00,
2013-01-25 06:06:00,5.9,0.0,29.93,East,85,0.0,-999.0,77,-99.99,,,0.00,weatherlink.com 1.10,2013-01-25 12:06:00,
2013-01-25 06:21:00,6.0,1.0,29.92,East,85,0.0,-999.0,78,-99.99,,,0.00,weatherlink.com 1.10,2013-01-25 12:21:00,
2013-01-25 06:36:00,6.2,1.0,29.93,East,85,0.0,-999.0,78,-99.99,,,0.00,weatherlink.com 1.10,2013-01-25 12:36:00,
2013-01-25 06:51:00,6.3,1.0,29.92,East,85,0.0,-999.0,78,-99.99,,,0.00,weatherlink.com 1.10,2013-01-25 12:51:00,
2013-01-25 07:06:00,6.5,1.0,29.92,East,85,0.0,-999.0,78,-99.99,,,0.00,weatherlink.com 1.10,2013-01-25 13:06:00,
2013-01-25 07:21:00,6.6,1.0,29.92,East,85,0.0,-999.0,78,-99.99,,,0.00,weatherlink.com 1.10,2013-01-25 13:21:00,
2013-01-25 07:36:00,6.8,1.0,29.92,East,85,0.0,-999.0,78,-99.99,,,0.00,weatherlink.com 1.10,2013-01-25 13:36:00,
2013-01-25 07:51:00,6.9,1.0,29.93,East,85,0.0,-999.0,78,-99.99,,,0.00,weatherlink.com 1.10,2013-01-25 13:51:00,
2013-01-25 08:07:00,7.0,2.0,29.93,East,85,0.0,-999.0,78,-99.99,,,0.00,weatherlink.com 1.10,2013-01-25 14:07:00,
2013-01-25 08:21:00,7.2,2.0,29.94,East,85,0.0,-999.0,78,-99.99,,,0.00,weatherlink.com 1.10,2013-01-25 14:21:00,
2013-01-25 08:37:00,7.5,2.0,29.95,East,85,0.0,-999.0,79,-99.99,,,0.00,weatherlink.com 1.10,2013-01-25 14:37:00,
2013-01-25 08:52:00,8.1,3.0,29.96,West,265,6.0,-999.0,78,-99.99,,,0.00,weatherlink.com 1.10,2013-01-25 14:52:00,
2013-01-25 09:07:00,8.6,3.0,29.96,West,263,4.0,-999.0,77,-99.99,,,0.00,weatherlink.com 1.10,2013-01-25 15:07:00,
2013-01-25 09:22:00,9.1,3.0,29.97,West,269,5.0,-999.0,75,-99.99,,,0.00,weatherlink.com 1.10,2013-01-25 15:22:00,
2013-01-25 09:37:00,9.5,3.0,29.98,West,268,10.0,-999.0,74,-99.99,,,0.00,weatherlink.com 1.10,2013-01-25 15:37:00,
2013-01-25 09:52:00,9.8,3.0,29.98,WSW,257,5.0,-999.0,73,-99.99,,,0.00,weatherlink.com 1.10,2013-01-25 15:52:00,
2013-01-25 10:07:00,10.7,3.0,29.99,WSW,253,9.0,-999.0,71,-99.99,,,0.00,weatherlink.com 1.10,2013-01-25 16:07:00,
2013-01-25 10:22:00,11.5,3.0,30.00,WNW,292,6.0,-999.0,69,-99.99,,,0.00,weatherlink.com 1.10,2013-01-25 16:22:00,
2013-01-25 10:37:00,12.0,3.0,30.00,West,272,3.0,-999.0,68,-99.99,,,0.00,weatherlink.com 1.10,2013-01-25 16:37:00,
2013-01-25 10:52:00,12.5,4.0,30.02,West,273,3.0,-999.0,68,-99.99,,,0.00,weatherlink.com 1.10,2013-01-25 16:52:00,
2013-01-25 11:07:00,12.4,3.0,30.02,West,272,2.0,-999.0,67,-99.99,,,0.00,weatherlink.com 1.10,2013-01-25 17:07:00,
2013-01-25 11:23:00,12.0,3.0,30.04,NNW,335,4.0,-999.0,66,-99.99,,,0.00,weatherlink.com 1.10,2013-01-25 17:23:00,
2013-01-25 11:37:00,12.0,3.0,30.03,WNW,300,6.0,-999.0,67,-99.99,,,0.00,weatherlink.com 1.10,2013-01-25 17:37:00,
2013-01-25 11:52:00,12.3,3.0,30.03,WNW,288,5.0,-999.0,65,-99.99,,,0.00,weatherlink.com 1.10,2013-01-25 17:52:00,
2013-01-25 12:08:00,12.7,2.0,30.04,West,275,16.0,-999.0,63,-99.99,,,0.00,weatherlink.com 1.10,2013-01-25 18:08:00,
2013-01-25 12:23:00,12.2,2.0,30.05,West,273,2.0,-999.0,64,-99.99,,,0.00,weatherlink.com 1.10,2013-01-25 18:23:00,
2013-01-25 12:38:00,11.7,2.0,30.05,West,278,3.0,-999.0,65,-99.99,,,0.00,weatherlink.com 1.10,2013-01-25 18:38:00,
2013-01-25 12:53:00,11.5,2.0,30.06,West,275,0.0,-999.0,65,-99.99,,,0.00,weatherlink.com 1.10,2013-01-25 18:53:00,
2013-01-25 13:08:00,11.6,1.0,30.07,West,277,3.0,-999.0,63,-99.99,,,0.00,weatherlink.com 1.10,2013-01-25 19:08:00,
2013-01-25 13:23:00,11.4,1.0,30.08,West,269,5.0,-999.0,63,-99.99,,,0.00,weatherlink.com 1.10,2013-01-25 19:23:00,
2013-01-25 13:38:00,10.9,1.0,30.09,West,274,1.0,-999.0,64,-99.99,,,0.00,weatherlink.com 1.10,2013-01-25 19:38:00,
2013-01-25 13:53:00,10.6,1.0,30.09,WNW,282,5.0,-999.0,66,-99.99,,,0.00,weatherlink.com 1.10,2013-01-25 19:53:00,
2013-01-25 14:08:00,10.2,2.0,30.10,NW,307,6.0,-999.0,69,-99.99,,,0.00,weatherlink.com 1.10,2013-01-25 20:08:00,
2013-01-25 14:24:00,10.0,1.0,30.10,WNW,298,4.0,-999.0,68,-99.99,,,0.00,weatherlink.com 1.10,2013-01-25 20:24:00,
2013-01-25 14:38:00,9.9,0.0,30.11,West,263,3.0,-999.0,65,-99.99,,,0.00,weatherlink.com 1.10,2013-01-25 20:38:00,
2013-01-25 14:53:00,9.5,-1.0,30.12,WSW,256,14.0,-999.0,64,-99.99,,,0.00,weatherlink.com 1.10,2013-01-25 20:53:00,
2013-01-25 15:08:00,9.3,-1.0,30.14,West,268,6.0,-999.0,63,-99.99,,,0.00,weatherlink.com 1.10,2013-01-25 21:08:00,
2013-01-25 15:23:00,8.8,-2.0,30.14,WNW,283,3.0,-999.0,63,-99.99,,,0.00,weatherlink.com 1.10,2013-01-25 21:23:00,
2013-01-25 15:39:00,8.4,-2.0,30.15,WNW,302,2.0,-999.0,63,-99.99,,,0.00,weatherlink.com 1.10,2013-01-25 21:39:00,
2013-01-25 15:54:00,7.9,-3.0,30.16,WNW,291,6.0,-999.0,62,-99.99,,,0.00,weatherlink.com 1.10,2013-01-25 21:54:00,
2013-01-25 16:09:00,8.1,-3.0,30.16,WNW,290,4.0,-999.0,62,-99.99,,,0.00,weatherlink.com 1.10,2013-01-25 22:09:00,
2013-01-25 16:24:00,8.0,-3.0,30.18,West,265,6.0,-999.0,62,-99.99,,,0.00,weatherlink.com 1.10,2013-01-25 22:24:00,
2013-01-25 16:54:00,6.9,-3.0,30.19,West,270,3.0,-999.0,64,-99.99,,,0.00,weatherlink.com 1.10,2013-01-25 22:54:00,
2013-01-25 17:09:00,6.5,-3.0,30.20,WSW,254,2.0,-999.0,64,-99.99,,,0.00,weatherlink.com 1.10,2013-01-25 23:09:00,
2013-01-25 17:24:00,5.9,-4.0,30.20,WNW,286,3.0,-999.0,65,-99.99,,,0.00,weatherlink.com 1.10,2013-01-25 23:24:00,
2013-01-25 17:39:00,5.6,-4.0,30.20,West,261,2.0,-999.0,66,-99.99,,,0.00,weatherlink.com 1.10,2013-01-25 23:39:00,
2013-01-25 17:54:00,5.3,-4.0,30.21,WNW,286,4.0,-999.0,66,-99.99,,,0.00,weatherlink.com 1.10,2013-01-25 23:54:00,
2013-01-25 18:10:00,4.8,-4.0,30.22,West,265,0.0,-999.0,67,-99.99,,,0.00,weatherlink.com 1.10,2013-01-26 00:10:00,
2013-01-25 18:40:00,3.8,-5.0,30.24,West,268,1.0,-999.0,68,-99.99,,,0.00,weatherlink.com 1.10,2013-01-26 00:40:00,
2013-01-25 18:54:00,3.4,-5.0,30.25,West,265,3.0,-999.0,68,-99.99,,,0.00,weatherlink.com 1.10,2013-01-26 00:54:00,
2013-01-25 19:10:00,2.9,-6.0,30.25,West,263,1.0,-999.0,68,-99.99,,,0.00,weatherlink.com 1.10,2013-01-26 01:10:00,
2013-01-25 19:25:00,2.3,-6.0,30.26,West,271,2.0,-999.0,69,-99.99,,,0.00,weatherlink.com 1.10,2013-01-26 01:25:00,
2013-01-25 19:40:00,1.7,-6.0,30.27,WNW,283,1.0,-999.0,69,-99.99,,,0.00,weatherlink.com 1.10,2013-01-26 01:40:00,
2013-01-25 19:55:00,1.1,-7.0,30.27,WNW,283,0.0,-999.0,69,-99.99,,,0.00,weatherlink.com 1.10,2013-01-26 01:55:00,
2013-01-25 20:10:00,0.6,-7.0,30.26,West,277,0.0,-999.0,69,-99.99,,,0.00,weatherlink.com 1.10,2013-01-26 02:10:00,
2013-01-25 20:25:00,0.0,-8.0,30.26,West,277,0.0,-999.0,70,-99.99,,,0.00,weatherlink.com 1.10,2013-01-26 02:25:00,
2013-01-25 20:40:00,-0.3,-8.0,30.27,WNW,297,1.0,-999.0,70,-99.99,,,0.00,weatherlink.com 1.10,2013-01-26 02:40:00,
2013-01-25 20:55:00,-0.6,-8.0,30.26,WNW,297,0.0,-999.0,70,-99.99,,,0.00,weatherlink.com 1.10,2013-01-26 02:55:00,
2013-01-25 21:10:00,-1.1,-9.0,30.26,WNW,297,1.0,-999.0,69,-99.99,,,0.00,weatherlink.com 1.10,2013-01-26 03:10:00,
2013-01-25 21:25:00,-1.7,-10.0,30.27,WNW,297,0.0,-999.0,69,-99.99,,,0.00,weatherlink.com 1.10,2013-01-26 03:25:00,
2013-01-25 21:40:00,-2.2,-10.0,30.28,WNW,297,0.0,-999.0,69,-99.99,,,0.00,weatherlink.com 1.10,2013-01-26 03:40:00,
2013-01-25 21:56:00,-2.8,-10.0,30.29,WNW,297,0.0,-999.0,70,-99.99,,,0.00,weatherlink.com 1.10,2013-01-26 03:56:00,
2013-01-25 22:11:00,-3.4,-11.0,30.30,WNW,297,0.0,-999.0,70,-99.99,,,0.00,weatherlink.com 1.10,2013-01-26 04:11:00,
2013-01-25 22:26:00,-4.0,-11.0,30.30,WNW,297,0.0,-999.0,70,-99.99,,,0.00,weatherlink.com 1.10,2013-01-26 04:26:00,
2013-01-25 22:41:00,-4.6,-12.0,30.31,WNW,297,1.0,-999.0,71,-99.99,,,0.00,weatherlink.com 1.10,2013-01-26 04:41:00,
2013-01-25 22:56:00,-5.0,-12.0,30.32,WNW,297,3.0,-999.0,73,-99.99,,,0.00,weatherlink.com 1.10,2013-01-26 04:56:00,
2013-01-25 23:11:00,-5.1,-12.0,30.32,WNW,297,1.0,-999.0,73,-99.99,,,0.00,weatherlink.com 1.10,2013-01-26 05:11:00,
2013-01-25 23:26:00,-5.1,-11.0,30.33,WNW,297,1.0,-999.0,74,-99.99,,,0.00,weatherlink.com 1.10,2013-01-26 05:26:00,
2013-01-25 23:41:00,-5.3,-12.0,30.35,WNW,297,0.0,-999.0,73,-99.99,,,0.00,weatherlink.com 1.10,2013-01-26 05:41:00,
2013-01-25 23:56:00,-5.7,-12.0,30.35,WNW,297,2.0,-999.0,73,-99.99,,,0.00,weatherlink.com 1.10,2013-01-26 05:56:00,